Weather History for KAKO - January, 2013

Change the Weather History Date:

Tuesday, January 8, 2013

  Actual Average Record
Temperature  
Mean Temperature 36 °F 28 °F  
Max Temperature 48 °F 40 °F 68 °F (1956)
Min Temperature 23 °F 17 °F -8 °F (1942)
Degree Days  
Heating Degree Days 29    
Month to date heating degree days 325  
Cooling Degree Days 0    
Month to date cooling degree days 0  
Moisture  
Dew Point 19 °F    
Average Humidity 54    
Maximum Humidity 69    
Minimum Humidity 39    
Precipitation  
Precipitation 0.00 in 0.01 in 0.31 in (1962)
Month to date precipitation T 0.06  
Year to date precipitation T 0.06  
Sea Level Pressure  
Sea Level Pressure 30.02 in    
Wind  
Wind Speed 12 mph (NW)    
Max Wind Speed 18 mph    
Max Gust Speed 24 mph    
Visibility 10 miles    
Events      
T = Trace of Precipitation, MM = Missing Value Source: NWS Daily Summary

Daily Weather History Graph

Daily Weather History Graph

Search for Another Location

Airport or City:

Trip Planner

Search our weather history database for the weather conditions in past years. The results will help you decide how hot, cold, wet, or windy it might be!

Date:

Astronomy

Jan. 08, 2013 Rise Set
Actual Time 7:15 AM MST 4:44 PM MST
Civil Twilight 6:44 AM MST 5:14 PM MST
Nautical Twilight 6:11 AM MST 5:48 PM MST
Astronomical Twilight 5:38 AM MST 6:21 PM MST
Moon 3:50 AM MST (1/8) 1:49 PM MST (1/8)
Length of Visible Light 10h 29m
Length of Day
9h 29m
Waning Crescent, 13% of the Moon is Illuminated
Jan 8
Waning Crescent
Jan 11
New
Jan 18
First Quarter
Jan 26
Full
Feb 3
Last Quarter

Hourly Weather History & Observations

Time (MST) Temp. Windchill Dew Point Humidity Pressure Visibility Wind Dir Wind Speed Gust Speed Precip Events Conditions
12:53 AM 30.9 °F 20.7 °F 10.9 °F 43% 29.79 in 10.0 mi SSW 13.8 mph - N/A   Clear
1:53 AM 28.9 °F 17.3 °F 12.0 °F 49% 29.79 in 10.0 mi WSW 16.1 mph - N/A   Clear
2:53 AM 24.1 °F 11.0 °F 12.9 °F 62% 29.83 in 10.0 mi West 16.1 mph - N/A   Clear
3:53 AM 26.1 °F 15.0 °F 17.1 °F 69% 29.81 in 10.0 mi WSW 12.7 mph - N/A   Clear
4:53 AM 26.1 °F 14.0 °F 18.0 °F 71% 29.86 in 10.0 mi West 15.0 mph - N/A   Mostly Cloudy
5:53 AM 24.1 °F 13.7 °F 16.0 °F 71% 29.87 in 10.0 mi West 10.4 mph - N/A   Clear
6:53 AM 25.0 °F 12.6 °F 16.0 °F 69% 29.90 in 10.0 mi West 15.0 mph - N/A   Clear
7:53 AM 28.9 °F 18.2 °F 17.1 °F 61% 29.94 in 10.0 mi WNW 13.8 mph - N/A   Clear
8:53 AM 28.0 °F 17.5 °F 17.1 °F 63% 29.97 in 10.0 mi NW 12.7 mph - N/A   Clear
9:53 AM 39.0 °F 32.3 °F 21.0 °F 49% 29.94 in 10.0 mi North 10.4 mph - N/A   Clear
10:53 AM 41.0 °F 35.8 °F 21.9 °F 47% 29.96 in 10.0 mi NW 8.1 mph - N/A   Clear
12:53 PM 45.0 °F 39.7 °F 24.1 °F 44% 29.94 in 10.0 mi WNW 10.4 mph - N/A   Clear
1:53 PM 48.0 °F - 25.0 °F 41% 29.97 in 10.0 mi NNW 9.2 mph - N/A   Clear
2:53 PM 45.0 °F 38.9 °F 25.0 °F 46% 30.03 in 10.0 mi North 12.7 mph - N/A   Clear
3:53 PM 41.0 °F 33.5 °F 25.0 °F 53% 30.08 in 10.0 mi North 13.8 mph - N/A   Clear
4:53 PM 37.0 °F 34.5 °F 24.1 °F 59% 30.13 in 10.0 mi Variable 3.5 mph - N/A   Clear
5:53 PM 35.1 °F 29.3 °F 21.9 °F 59% 30.17 in 10.0 mi North 6.9 mph - N/A   Clear
6:53 PM 37.9 °F 34.4 °F 19.9 °F 48% 30.18 in 10.0 mi NNE 4.6 mph - N/A   Clear
7:53 PM 30.0 °F 23.2 °F 19.0 °F 64% 30.22 in 10.0 mi North 6.9 mph - N/A   Clear
8:53 PM 28.9 °F 19.8 °F 19.9 °F 69% 30.24 in 10.0 mi North 10.4 mph - N/A   Clear
9:53 PM 28.0 °F 20.8 °F 19.0 °F 69% 30.24 in 10.0 mi North 6.9 mph - N/A   Clear
10:53 PM 28.9 °F 19.8 °F 19.0 °F 67% 30.27 in 10.0 mi SSE 10.4 mph - N/A   Clear
11:53 PM 28.9 °F 23.9 °F 17.1 °F 61% 30.26 in 10.0 mi South 4.6 mph - N/A   Clear